Wausau, WI

3:19 AM CDT on May 25, 2017 (GMT -0500)
Wausau Downtown

Weather History for KAUW - February, 2013

Change the Weather History Date:

Friday, February 15, 2013

  Actual Average Record
Temperature  
Mean Temperature 12 °F 19 °F  
Max Temperature 19 °F 28 °F 48 °F (1921)
Min Temperature 5 °F 10 °F -25 °F (1904)
Degree Days  
Heating Degree Days 53 46  
Month to date heating degree days 742 717  
Since 1 July heating degree days 5238 5567  
Cooling Degree Days 0 0  
Month to date cooling degree days 0 0  
Year to date cooling degree days 0 0  
Moisture  
Dew Point 4 °F    
Average Humidity 67    
Maximum Humidity 80    
Minimum Humidity 53    
Precipitation  
Precipitation T in 0.03 in 0.52 in (1945)
Month to date precipitation 1.04 0.45  
Year to date precipitation 2.72 1.47  
Snow  
Snow T in 0.30 in 5.70 in (1979)
Month to date snowfall 8.8 5.2  
Since 1 July snowfall 49.3 40.9  
Snow Depth 12.00 in    
Sea Level Pressure  
Sea Level Pressure 30.16 in    
Wind  
Wind Speed 7 mph (NW)    
Max Wind Speed 14 mph    
Max Gust Speed 21 mph    
Visibility 10 miles    
Events      
T = Trace of Precipitation, MM = Missing Value Source: NWS Daily Summary

Daily Weather History Graph

Daily Weather History Graph

Search for Another Location

Airport or City:

Trip Planner

Search our weather history database for the weather conditions in past years. The results will help you decide how hot, cold, wet, or windy it might be!

Date:

Astronomy

Feb. 15, 2013 Rise Set
Actual Time 6:58 AM CST 5:27 PM CST
Civil Twilight 6:28 AM CST 5:57 PM CST
Nautical Twilight 5:54 AM CST 6:31 PM CST
Astronomical Twilight 5:20 AM CST 7:05 PM CST
Moon 9:17 AM CST (2/15) 11:46 PM CST (2/15)
Length of Visible Light 11h 28m
Length of Day
10h 28m
Waxing Crescent, 30% of the Moon is Illuminated
Feb 15
Waxing Crescent
Feb 17
First Quarter
Feb 25
Full
Mar 4
Last Quarter
Mar 11
New

Hourly Weather History & Observations

Time (CST) Temp. Windchill Dew Point Humidity Pressure Visibility Wind Dir Wind Speed Gust Speed Precip Events Conditions
12:54 AM 14.0 °F 6.5 °F 6.1 °F 71% 30.07 in 10.0 mi NW 4.6 mph - N/A   Clear
1:54 AM 12.0 °F 4.1 °F 5.0 °F 73% 30.09 in 10.0 mi NW 4.6 mph - N/A   Clear
2:54 AM 10.0 °F 0.4 °F 5.0 °F 80% 30.09 in 10.0 mi NW 5.8 mph - N/A   Clear
3:54 AM 9.0 °F 2.4 °F 3.9 °F 80% 30.11 in 10.0 mi NNW 3.5 mph - N/A   Clear
4:54 AM 8.1 °F -0.5 °F 3.0 °F 80% 30.13 in 10.0 mi NW 4.6 mph - N/A   Clear
5:54 AM 6.1 °F -2.8 °F 1.9 °F 83% 30.14 in 10.0 mi NW 4.6 mph - N/A   Overcast
6:54 AM 6.1 °F -2.8 °F 1.9 °F 83% 30.16 in 10.0 mi NW 4.6 mph - N/A   Overcast
7:54 AM 8.1 °F 1.4 °F 1.9 °F 76% 30.17 in 10.0 mi NW 3.5 mph - N/A   Overcast
8:54 AM 10.0 °F -0.9 °F 3.0 °F 73% 30.19 in 10.0 mi NW 6.9 mph - N/A   Overcast
9:54 AM 14.0 °F 2.9 °F 5.0 °F 67% 30.19 in 10.0 mi NW 8.1 mph - N/A   Overcast
10:54 AM 16.0 °F 6.3 °F 6.1 °F 65% 30.18 in 10.0 mi West 6.9 mph - N/A   Overcast
11:54 AM 18.0 °F 5.4 °F 6.1 °F 60% 30.17 in 10.0 mi WNW 11.5 mph - N/A   Mostly Cloudy
12:16 PM 19.4 °F 6.0 °F 6.8 °F 58% 30.08 in 10.0 mi West 13.8 mph - N/A   Overcast
12:54 PM 18.0 °F 4.2 °F 6.1 °F 60% 30.16 in 10.0 mi West 13.8 mph - N/A   Mostly Cloudy
1:54 PM 19.0 °F 6.8 °F 6.1 °F 57% 30.15 in 10.0 mi WSW 11.5 mph - N/A   Overcast
2:54 PM 18.0 °F 4.2 °F 6.1 °F 60% 30.16 in 10.0 mi West 13.8 mph 20.7 mph N/A   Overcast
3:54 PM 18.0 °F 6.9 °F 6.1 °F 60% 30.17 in 10.0 mi West 9.2 mph - N/A   Overcast
4:54 PM 17.1 °F 5.0 °F 3.0 °F 54% 30.19 in 10.0 mi NW 10.4 mph - N/A   Overcast
5:54 PM 16.0 °F 3.6 °F 1.9 °F 54% 30.21 in 10.0 mi NW 10.4 mph - N/A   Overcast
6:54 PM 15.1 °F 3.3 °F 1.0 °F 54% 30.21 in 10.0 mi NW 9.2 mph - N/A   Overcast
7:54 PM 14.0 °F 2.9 °F 1.0 °F 56% 30.22 in 10.0 mi NW 8.1 mph - N/A   Overcast
8:54 PM 12.0 °F -0.4 °F 3.0 °F 67% 30.23 in 10.0 mi North 9.2 mph - 0.00 in   Overcast
9:54 PM 9.0 °F - 1.9 °F 73% 30.22 in 10.0 mi Calm Calm - N/A   Clear
10:54 PM 8.1 °F -0.5 °F 1.0 °F 73% 30.22 in 10.0 mi NW 4.6 mph - N/A   Clear
11:54 PM 5.0 °F -4.1 °F -0.0 °F 80% 30.21 in 10.0 mi NW 4.6 mph - N/A   Clear